Regional Weather Roundup
Issued by NWS

Home | Current Version | Previous Version | Text Only | Print | Product List | Glossary Off
Versions: 1 2 3 4 5 6 7 8 9 10 11 12 13 14 15 16 17 18 19 20 21 22 23 24 25 26 27 28 29 30 31 32 33 34 35 36 37 38 39 40 41 42 43 44 45 46 47 48 49 50

000
ASUS43 KFSD 231002
RWRSD

WEATHER ROUNDUP FOR SOUTH DAKOTA
NATIONAL WEATHER SERVICE SIOUX FALLS SD
500 AM CDT SUN APR 23 2017

NOTE: "FAIR" INDICATES FEW OR NO CLOUDS BELOW 12,000 FEET WITH NO
SIGNIFICANT WEATHER AND/OR OBSTRUCTIONS TO VISIBILITY.


SDZ001>005-009-010-012>017-231100-
NORTHWEST AND NORTH CENTRAL SOUTH DAKOTA

CITY           SKY/WX    TMP DP  RH WIND       PRES   REMARKS
BUFFALO          N/A     41  40  96 NE22      29.83F
FAITH            N/A     43  36  76 S16       29.90F
MOBRIDGE       CLOUDY    36  29  75 E25G38    29.98F
$$

SDZ012>016-024>037-041>051-057-063-072>074-231100-
SOUTHWEST AND SOUTH CENTRAL SOUTH DAKOTA

CITY           SKY/WX    TMP DP  RH WIND       PRES   REMARKS
RAPID CTY ARPT PTCLDY    45  32  60 S10       29.93F
PIERRE         CLEAR     47  31  53 SW10      29.97F
CUSTER         CLOUDY    40  28  62 CALM      29.98F
ELLSWORTH AFB  CLOUDY    46  33  60 S14       29.90F HAZE
PHILIP         PTCLDY    49  33  54 S13       29.96F
PINE RIDGE     CLEAR     45  31  58 S18G28    29.99F
SPEARFISH      FAIR      55  28  35 SW18G24   29.86F
WINNER         FAIR      44  32  62 S14       30.05F
$$

SDZ004>011-016>023-039-040-231100-
NORTHEAST SOUTH DAKOTA

CITY           SKY/WX    TMP DP  RH WIND       PRES   REMARKS
ABERDEEN       CLOUDY    36  31  82 NE20G28   30.08F
WATERTOWN      PTCLDY    44  36  73 CALM      30.06F
BROOKINGS      CLEAR     45  35  68 S7        30.07F
SISSETON         N/A     38  36  92 N16       30.11S
$$

SDZ017-020-022-023-036>040-048>070-231100-
SOUTHEAST SOUTH DAKOTA

CITY           SKY/WX    TMP DP  RH WIND       PRES   REMARKS
SIOUX FALLS    CLEAR     50  35  56 SW8       30.09F
HURON          CLEAR     45  37  73 S13       30.03F
CHAMBERLAIN    CLEAR     48  36  63 S15       30.03F
MITCHELL       CLEAR     49  36  61 S12       30.06F
YANKTON        CLEAR     46  30  53 SW9       30.11F
$$

ABBREVIATIONS USED IN REMARKS
   TC - TEMPERATURE IN CELSIUS
  WCI - WIND CHILL INDEX
   HX - HEAT INDEX
  VSB - VISIBILITY




USA.gov is the U.S. government's official web portal to all federal, state and local government web resources and services.